Skip Page Navigation
NASA JPL Caltech
NASA Logo - Jet Propulsion Laboratory + View the NASA Portal
+ Center for Near-Earth Object Studies
JPL Home Earth Solar System Stars & Galaxies Technology
JPL Solar System Dynamics
BODIES ORBITS EPHEMERIDES TOOLS PHYSICAL DATA DISCOVERY FAQ SITE MAP
JPL Small-Body Database Browser
Search: [ help ]  
(2020 FM)
Classification: Aten [NEO]          SPK-ID: 54016204
Ephemeris | Orbit Diagram | Orbital Elements | Mission Design | Physical Parameters | Close-Approach Data ]

[ show orbit diagram ]
Orbital Elements at Epoch 2459200.5 (2020-Dec-17.0) TDB
Reference: JPL 6 (heliocentric ecliptic J2000)
 Element Value Uncertainty (1-sigma)   Units 
e .3124171308212265 6.2386e-06  
a .9929360850298193 1.0536e-07 au
q .6827258422559418 6.2536e-06 au
i 21.60557001379189 0.00029958 deg
node 173.0794031147868 2.7297e-05 deg
peri 246.4482969103166 0.00028215 deg
M 353.4934190903588 0.00044003 deg
tp 2459207.031767262686
(2020-Dec-23.53176726)
0.00044105 TDB
period 361.3935256046065
0.99
5.7519e-05
1.575e-07
d
yr
n .996144021666478 1.5854e-07 deg/d
Q 1.303146327803697 1.3827e-07 au
  Orbit Determination Parameters
   # obs. used (total)      72  
   data-arc span      369 days (1.01 yr)  
   first obs. used      2020-03-16  
   last obs. used      2021-03-20  
   planetary ephem.      DE431  
   SB-pert. ephem.      SB431-N16  
   condition code      2  
   norm. resid. RMS      .3901  
   source      ORB  
   producer      Otto Matic  
   solution date      2021-Mar-20 08:12:04  

Additional Information
 Earth MOID = .0221197 au 
 Jupiter MOID = 4.09851 au 
 T_jup = 6.012 
[ show covariance matrix ]

Ephemeris | Orbit Diagram | Orbital Elements | Mission Design | Physical Parameters | Close-Approach Data ]

Physical Parameter Table
Parameter Symbol Value Units Sigma Reference Notes
absolute magnitude H 24.0   .33603 E2020-FI4 autocmod 2.8

[ show close-approach data ]
Ephemeris | Orbit Diagram | Orbital Elements | Mission Design | Physical Parameters | Close-Approach Data ]
ABOUT SSD CREDITS/AWARDS PRIVACY/COPYRIGHT GLOSSARY LINKS
FirstGov 2021-Apr-13 12:13 UT
(server date/time)  
NASA Home Page
Site Manager:   Ryan S. Park
Webmaster  Alan B. Chamberlin